Location: Camp Roosevelt
(41.7914°N, 81.1673°W)
Time: 17:58:13
(UTC+00:00)

ARGOS - Pass Details

Date: 29 October 2020
Orbit: 820 x 835 km, 98.4° (Epoch: 27 November)

Event Time Altitude Azimuth Distance (km) Brightness Sun altitude
Exits shadow 23:21:54 15° 88° (E) 2,092 4.6 -11.7°
Maximum altitude 23:23:56 19° 61° (ENE) 1,912 4.5 -12.0°
Drops below altitude 10° 23:27:34 10° 19° (NNE) 2,455 5.4 -12.7°
Sets 23:30:36 0° 2° (N) 3,393 6.3 -13.3°
